カタログに戻る

STARLINK-33810

運用中通信VLEO
NORAD 63660·PAYLOAD·🇺🇸 United States

打ち上げ Apr 25, 2025 から Cape Canaveral Space Force Station

Loading…

次のパス (今後24時間)

TLE

最新Source: CelesTrak SupGP

元期: Sep 15, 2026, 02:42 UTC

1 63660C 25083AC  26258.11298611  .00003797  00000+0  13751-3 0  2584
2 63660  43.0025  15.1902 0001595 264.0174 308.3409 15.27576135    19

AllMySatでSTARLINK-33810をリアルタイム追跡

Download on the App Store